Weather History for Puerto Plata, Dominican Republic

Change the Weather History Date:

Wednesday, February 26, 2014

  Actual Average Record
Temperature  
Mean Temperature 74 °F -  
Max Temperature 87 °F 82 °F 91 °F (2004)
Min Temperature 62 °F 68 °F 62 °F (2014)
Cooling Degree Days 10    
Growing Degree Days 24 (Base 50)    
Moisture  
Dew Point 71 °F    
Average Humidity 79    
Maximum Humidity 100    
Minimum Humidity 58    
Precipitation  
Precipitation 0.00 in - - ()
Sea Level Pressure  
Sea Level Pressure 29.91 in    
Wind  
Wind Speed 5 mph ()    
Max Wind Speed 18 mph    
Max Gust Speed -    
Visibility 6.9 miles    
Events      
Averages and records for this station are not official NWS values.
T = Trace of Precipitation, MM = Missing Value Source: Averaged Metar Reports

Daily Weather History Graph

Daily Weather History Graph

Search for Another Location

Airport:

Trip Planner

Search our weather history database for the weather conditions in past years. The results will help you decide how hot, cold, wet, or windy it might be!

Date:

Astronomy

Feb. 26, 2014 Rise Set
Actual Time 7:04 AM AST 6:46 PM AST
Civil Twilight 6:41 AM AST 7:08 PM AST
Nautical Twilight 6:16 AM AST 7:34 PM AST
Astronomical Twilight 5:50 AM AST 7:59 PM AST
Moon 4:30 AM AST (2/26) 4:11 PM AST (2/26)
Length of Visible Light 12h 26m
Length of Day
11h 42m
Waning Crescent, 10% of the Moon is Illuminated
Feb 26
Waning Crescent
Mar 1
New
Mar 8
First Quarter
Mar 16
Full
Mar 23
Last Quarter

Hourly Weather History & Observations

Time (AST) Temp. Heat Index Dew Point Humidity Pressure Visibility Wind Dir Wind Speed Gust Speed Precip Events Conditions
2:00 AM 72 °F - 69 °F 89% 29.92 in 10 mi Calm Calm - -  
2:00 AM 71.6 °F - 69.8 °F 94% 29.92 in - Calm Calm - N/A   Clear
5:00 AM 70 °F - 67 °F 89% 29.92 in 10 mi Calm Calm - -   Scattered Clouds
5:00 AM 69.8 °F - 69.8 °F 100% 29.92 in 6.2 mi Calm Calm - N/A   Partly Cloudy
8:00 AM 68 °F - 67 °F 94% 29.96 in 10 mi Calm Calm - -  
8:00 AM 68.0 °F - 66.2 °F 94% 29.95 in - Calm Calm - N/A   Clear
9:00 AM 75.2 °F - 71.6 °F 89% 29.98 in 6.2 mi Calm Calm - N/A   Partly Cloudy
10:00 AM 82.4 °F 86.3 °F 69.8 °F 66% 29.98 in 6.2 mi East 5.8 mph - N/A   Partly Cloudy
11:00 AM 84.2 °F 90.9 °F 73.4 °F 70% 29.98 in 6.2 mi ENE 11.5 mph - N/A   Partly Cloudy
12:00 PM 86.0 °F 93.4 °F 73.4 °F 66% 29.98 in 6.2 mi ENE 11.5 mph - N/A   Partly Cloudy
1:00 PM 86.0 °F 90.4 °F 69.8 °F 58% 29.92 in 6.2 mi East 17.3 mph - N/A   Partly Cloudy
2:00 PM 86.0 °F 93.4 °F 73.4 °F 66% 29.89 in 6.2 mi East 17.3 mph - N/A   Partly Cloudy
3:00 PM 87.8 °F 95.6 °F 73.4 °F 62% 29.86 in 6.2 mi East 15.0 mph - N/A   Partly Cloudy
4:00 PM 86.0 °F 95.1 °F 75.2 °F 70% 29.83 in 6.2 mi East 18.4 mph - N/A   Partly Cloudy
5:00 PM 84.2 °F 90.9 °F 73.4 °F 70% 29.83 in 6.2 mi East 11.5 mph - N/A   Partly Cloudy
6:00 PM 82.4 °F 88.2 °F 73.4 °F 74% 29.83 in 6.2 mi ESE 16.1 mph - N/A   Partly Cloudy
7:00 PM 80.6 °F 85.4 °F 73.4 °F 79% 29.83 in 6.2 mi East 11.5 mph - N/A   Partly Cloudy
8:00 PM 77.0 °F - 71.6 °F 83% 29.83 in 6.2 mi ESE 8.1 mph - N/A   Partly Cloudy
11:00 PM 73.4 °F - 69.8 °F 88% 29.89 in 6.2 mi Calm Calm - N/A   Partly Cloudy